Date,TemperatureHighF,TemperatureAvgF,TemperatureLowF,DewpointHighF,DewpointAvgF,DewpointLowF,HumidityHigh,HumidityAvg,HumidityLow,PressureMaxIn,PressureMinIn,WindSpeedMaxMPH,WindSpeedAvgMPH,GustSpeedMaxMPH,PrecipitationSumIn
2013-2-1,40,30,23,30,27,21,97,88,67,30.45,30.20,9,0,9,0.00
2013-2-2,31,24,20,29,23,18,96,93,90,30.50,30.27,7,0,7,0.00
2013-2-3,32,27,22,29,25,19,96,92,86,30.27,30.11,7,0,7,0.00
2013-2-4,37,31,26,32,27,-100,96,91,78,30.12,29.93,8,-7,8,0.00
2013-2-5,38,33,29,34,31,28,97,92,82,29.93,29.77,9,0,9,0.01
2013-2-6,40,33,25,35,30,24,97,91,76,30.00,29.86,7,0,7,0.01
2013-2-7,49,36,31,36,30,19,98,79,31,30.04,29.84,13,2,14,0.02
2013-2-8,45,32,25,28,22,17,85,70,40,30.18,30.05,11,2,11,0.00
2013-2-9,43,32,26,30,25,21,88,75,51,30.20,30.03,10,1,10,0.00
2013-2-10,49,34,25,31,26,21,86,74,43,30.27,30.14,13,2,13,0.00
2013-2-11,38,30,22,29,24,-100,93,83,67,30.22,30.15,8,-3,8,0.00
2013-2-12,40,34,28,32,30,26,94,84,70,30.27,30.07,11,1,11,0.00
2013-2-13,52,45,33,35,27,21,84,51,31,30.32,30.05,26,4,26,0.00
2013-2-14,49,37,30,31,27,24,91,69,40,30.50,30.33,13,1,13,0.00
2013-2-15,48,35,26,34,28,25,93,78,45,30.53,30.24,10,1,10,0.00
2013-2-16,51,37,27,35,28,22,94,73,32,30.24,29.91,25,2,25,0.00
2013-2-17,50,38,28,29,25,17,88,62,27,30.06,29.98,17,2,17,0.00
2013-2-18,40,33,28,30,25,22,89,75,59,30.05,29.77,9,1,9,0.00
2013-2-19,45,34,26,28,23,20,87,65,38,29.91,29.73,11,2,11,0.00
2013-2-20,46,30,24,29,12,-100,85,61,35,29.99,29.88,10,-64,10,0.00
2013-2-21,46,32,24,30,22,-100,87,72,47,29.98,29.89,20,-3,20,0.00
2013-2-22,46,36,30,36,25,-100,96,76,56,29.90,29.53,24,-13,24,0.03
2013-2-23,47,36,27,34,27,24,96,73,42,30.22,29.70,25,2,25,0.14
2013-2-24,46,36,29,31,28,24,86,72,46,30.23,29.95,11,0,11,0.00
2013-2-25,48,36,29,34,18,-100,95,62,35,30.10,29.81,28,-38,28,0.01
2013-2-26,50,38,33,29,15,-100,76,49,26,30.23,30.11,14,-48,14,0.00
2013-2-27,51,39,28,32,27,22,85,65,34,30.24,30.13,9,1,9,0.00
2013-2-28,41,38,35,38,34,29,98,88,70,30.28,30.17,7,0,7,0.19